2019-087E (44842 NORAD) Tracking and Keplerian Element Data

This shows tracking and keplerian element data for the satellite.

Feedback or suggestion? Click here.




ElementValue
Catalog44842
Name2019-087E
Epoch Orbit1790
Epoch Day94.09584297
Epoch Year2020
RAAN251.2559
Inclination97.3822
Eccentricity0.0010721
Argument of Perigee211.0454
Mean Anonmoly260.5841
Mean Motion15.21529459
Decay Rate1.095E-05
L11 44842U 19087E 20094.09584297 .00001095 00000-0 51640-4 0 9991
L22 44842 97.3822 251.2559 0010721 211.0454 260.5841 15.21529459 17908

Live tracking and technical data element details for 2019-087E (NORAD 44842). 2019-087E can be tracked NOW for your location showing map with azimuth and elevation plus other details from your city location.

Track the satellite on the map from your city or location and see movement details for azimuth, elevation, latitude, longitude, range, height, and movement on the map or in text.







IsCatalogInMostPopularTable: catalog: 44842, numindb: 32
Update: records affected: 1



GetName: 44842 2019-087E

Hit Count: updated at: Sun, 05 Apr 2020 19:09:36 GMT